User: anonymous
Location: Caltech
(34.1382°N, 118.1253°W)
Time: 02:47:59
(UTC-07:00)
Language:

NOSS 3-2 (A) - Orbit

View from above orbital plane
View from above orbital plane
View from above satellite
View from above satellite

Ground track
Ground track

The orbit data is extracted from the following two-line orbital elements,

1 28095U 03054A   14270.12037112 0.00000050  00000-0  78142-4 0    01
2 28095  63.4290 328.5427 0218000 358.4159   1.5841 13.41290080    04
Epoch (UTC): 27 September 2014 02:53:20
Eccentricity: 0.0218000
inclination: 63.4290°
perigee height: 941 km
apogee height: 1267 km
right ascension of ascending node: 328.5427°
argument of perigee: 358.4159°
revolutions per day: 13.41290080
mean anomaly at epoch: 1.5841°
orbit number at epoch: 0

The dashed part of the orbit path shows where the satellite is in the earth's shadow,  

DLR